Location: London
(51.5074°N, 0.1278°W)
Time: 03:48:17
(UTC+01:00)

Envisat - Pass Details

Date: 29 September 2021
Orbit: 764 x 766 km, 98.2° (Epoch: 23 October)

Event Time Altitude Azimuth Distance (km) Brightness Sun altitude
Rises 05:46:14 0° 18° (NNE) 3,245 6.7 -12.0°
Reaches altitude 10° 05:48:40 10° 25° (NNE) 2,314 6.0 -11.6°
Maximum altitude 05:53:32 44° 98° (E) 1,054 4.3 -10.8°
Drops below altitude 10° 05:58:22 10° 170° (S) 2,296 5.5 -10.1°
Sets 06:00:46 0° 177° (S) 3,218 6.2 -9.7°
